AAL583 MMMX-KLAX

Flight info

Callsign AAL583
Flight time N/A
Altitude 36000
Route ATUR2A/05L ATURO UT134 ZCL DCT AVISU UT60 AXASA UT41 ASUTA DCT AMMOR OLAAA2
Aircraft A21N/M-SDE3FGHIRWY/LB1

Departure

Time 2026-05-08 04:21
Airport Mexico City Benito Juárez International Airport (MMMX)

Arrival

Time N/A
Airport Los Angeles International Airport (KLAX)
Time Latitude Longitude Altitude Speed Heading
2026-05-08 03:37 19.43410 -99.08305 7344 ft 0 kts 329°
2026-05-08 04:08 19.43399 -99.08299 7344 ft 2 kts 329°
2026-05-08 04:08 19.43387 -99.08291 7344 ft 2 kts 330°
2026-05-08 04:08 19.43373 -99.08283 7344 ft 2 kts 329°
2026-05-08 04:08 19.43361 -99.08275 7344 ft 2 kts 329°
2026-05-08 04:09 19.43347 -99.08267 7344 ft 2 kts 355°
2026-05-08 04:09 19.43332 -99.08270 7344 ft 2 kts 30°
2026-05-08 04:09 19.43323 -99.08278 7344 ft 0 kts 56°
2026-05-08 04:09 19.43320 -99.08285 7344 ft 1 kts 60°
2026-05-08 04:10 19.43319 -99.08285 7344 ft 0 kts 60°
2026-05-08 04:14 19.43324 -99.08276 7344 ft 5 kts 60°
2026-05-08 04:14 19.43363 -99.08206 7344 ft 15 kts 58°
2026-05-08 04:14 19.43433 -99.08086 7344 ft 21 kts 59°
2026-05-08 04:14 19.43515 -99.07941 7343 ft 24 kts 59°
2026-05-08 04:15 19.43596 -99.07793 7343 ft 17 kts 60°
2026-05-08 04:15 19.43664 -99.07671 7343 ft 20 kts 59°
2026-05-08 04:15 19.43729 -99.07559 7343 ft 13 kts 59°
2026-05-08 04:15 19.43773 -99.07477 7343 ft 14 kts 60°
2026-05-08 04:16 19.43830 -99.07375 7343 ft 17 kts 59°
2026-05-08 04:16 19.43901 -99.07252 7342 ft 20 kts 58°
2026-05-08 04:16 19.43978 -99.07112 7342 ft 23 kts 59°
2026-05-08 04:16 19.44060 -99.06973 7342 ft 15 kts 60°
2026-05-08 04:17 19.44107 -99.06888 7342 ft 12 kts 59°
2026-05-08 04:17 19.44156 -99.06800 7342 ft 15 kts 60°
2026-05-08 04:17 19.44216 -99.06691 7342 ft 18 kts 59°
2026-05-08 04:17 19.44280 -99.06579 7341 ft 8 kts 59°
2026-05-08 04:18 19.44285 -99.06571 7341 ft 0 kts 59°
2026-05-08 04:19 19.44310 -99.06525 7341 ft 17 kts 59°
2026-05-08 04:19 19.44377 -99.06408 7341 ft 7 kts 59°
2026-05-08 04:19 19.44401 -99.06362 7341 ft 11 kts 70°
2026-05-08 04:20 19.44370 -99.06293 7341 ft 13 kts 150°
2026-05-08 04:20 19.44309 -99.06297 7341 ft 9 kts 224°
2026-05-08 04:20 19.44286 -99.06331 7341 ft 10 kts 239°
2026-05-08 04:20 19.44116 -99.06644 7342 ft 85 kts 239°
2026-05-08 04:21 19.43710 -99.07379 7343 ft 144 kts 237°
2026-05-08 04:21 19.43108 -99.08423 7422 ft 182 kts 240°
2026-05-08 04:21 19.42460 -99.09560 7922 ft 184 kts 241°
2026-05-08 04:21 19.41808 -99.10737 8421 ft 183 kts 241°
2026-05-08 04:22 19.41174 -99.11877 8779 ft 184 kts 240°
2026-05-08 04:22 19.40503 -99.13081 8987 ft 196 kts 240°
2026-05-08 04:22 19.39748 -99.14427 8960 ft 229 kts 239°
2026-05-08 04:22 19.38908 -99.15911 9467 ft 233 kts 239°
2026-05-08 04:23 19.38079 -99.17364 10077 ft 232 kts 238°
2026-05-08 04:23 19.37249 -99.18800 10678 ft 231 kts 237°
2026-05-08 04:23 19.36552 -99.20355 11047 ft 243 kts 260°
2026-05-08 04:23 19.36731 -99.22124 11307 ft 258 kts 296°
2026-05-08 04:24 19.37910 -99.23567 11576 ft 272 kts 326°
2026-05-08 04:24 19.39582 -99.24616 12006 ft 281 kts 328°
2026-05-08 04:24 19.41244 -99.25725 12560 ft 284 kts 324°
2026-05-08 04:24 19.42860 -99.26936 13137 ft 286 kts 322°
2026-05-08 04:25 19.44449 -99.28213 13716 ft 287 kts 321°
2026-05-08 04:25 19.46024 -99.29517 14268 ft 290 kts 320°
2026-05-08 04:25 19.47653 -99.30836 14806 ft 294 kts 327°
2026-05-08 04:25 19.49559 -99.31658 15293 ft 300 kts 348°
2026-05-08 04:26 19.51683 -99.31836 15591 ft 313 kts 358°
2026-05-08 04:26 19.53949 -99.31847 15837 ft 328 kts 359°
2026-05-08 04:26 19.56314 -99.31851 16086 ft 342 kts 359°
2026-05-08 04:26 19.58751 -99.31874 16321 ft 356 kts 358°
2026-05-08 04:27 19.61297 -99.31914 16585 ft 369 kts 358°
2026-05-08 04:27 19.63898 -99.31815 17022 ft 375 kts
2026-05-08 04:27 19.66500 -99.31383 17554 ft 378 kts 12°
2026-05-08 04:27 19.69066 -99.30668 18062 ft 382 kts 15°
2026-05-08 04:28 19.71633 -99.29869 18541 ft 386 kts 16°
2026-05-08 04:28 19.74241 -99.29042 18992 ft 391 kts 16°
2026-05-08 04:28 19.76890 -99.28204 19448 ft 395 kts 16°
2026-05-08 04:28 19.79522 -99.27377 19886 ft 399 kts 16°
2026-05-08 04:29 19.82225 -99.26529 20328 ft 403 kts 17°
2026-05-08 04:29 19.84942 -99.25679 20755 ft 406 kts 17°
2026-05-08 04:29 19.87678 -99.24824 21071 ft 410 kts 17°
2026-05-08 04:29 19.90456 -99.23956 21133 ft 411 kts 17°